This demonstration page uses our WeatherBlox Daily Observations layout. Learn more.

Left ArrowRight Arrow

39.51506, -84.39828

Hourly Observations for October 22, 2020

Temp ( °F °C ) Dew Point ( °F °C ) Humidity (%) Winds ( mph kmh ) Pressure ( in mb ) Visibility ( mi km ) Precip ( " mm )
12:15 am 00:15 Mostly Cloudy with Mist and Fog 55 13 N/A N/A Calm 30.19 1022 1 1.60934 0 0
12:35 am 00:35 Mostly Cloudy with Fog 55 13 N/A N/A Calm 30.18 1022 0.5 0.80467 0 0
12:55 am 00:55 Cloudy with Fog 55 13 N/A N/A Calm 30.18 1022 0.5 0.80467 0 0
1:15 am 01:15 Cloudy with Fog 55 13 N/A N/A Calm 30.17 1022 0.5 0.80467 0 0
1:35 am 01:35 Cloudy with Nearby Thunderstorms 54 12 N/A N/A Calm 30.17 1022 0.25 0.402335 0 0
1:55 am 01:55 Mostly Cloudy with Mist and Fog 54 12 N/A N/A Calm 30.17 1022 1.75 2.816345 0 0
2:15 am 02:15 Mostly Cloudy with Fog 55 13 N/A N/A Calm 30.17 1022 0.5 0.80467 0 0
2:35 am 02:35 Cloudy with Fog 54 12 N/A N/A Calm 30.17 1022 0.25 0.402335 0 0
2:55 am 02:55 Cloudy with Fog 55 13 N/A N/A Calm 30.17 1022 0.25 0.402335 0 0
3:15 am 03:15 Cloudy with Fog 54 12 N/A N/A Calm 30.16 1021 0.25 0.402335 0 0
3:35 am 03:35 Cloudy with Fog 54 12 N/A N/A Calm 30.16 1021 0.25 0.402335 0 0
3:55 am 03:55 Cloudy with Fog 54 12 N/A N/A Calm 30.16 1021 0.25 0.402335 0 0
4:15 am 04:15 Cloudy with Fog 52 11 N/A N/A Calm 30.17 1022 0.25 0.402335 0 0
4:35 am 04:35 Cloudy with Fog 54 12 N/A N/A Calm 30.16 1021 0.25 0.402335 0 0
4:55 am 04:55 Cloudy with Fog 54 12 N/A N/A Calm 30.16 1021 N/A 0 0
5:15 am 05:15 Cloudy with Fog 52 11 N/A N/A Calm 30.17 1022 0.25 0.402335 0 0
5:35 am 05:35 Cloudy with Fog 52 11 N/A N/A Calm 30.18 1022 N/A 0 0
5:55 am 05:55 Cloudy with Fog 52 11 N/A N/A Calm 30.18 1022 0.25 0.402335 0 0
6:15 am 06:15 Cloudy with Fog 52 11 N/A N/A Calm 30.18 1022 0.5 0.80467 0 0
6:35 am 06:35 Cloudy with Fog 50 10 N/A N/A Calm 30.19 1022 0.25 0.402335 0 0
6:55 am 06:55 Cloudy with Fog 52 11 N/A N/A Calm 30.19 1022 0.25 0.402335 0 0
7:15 am 07:15 Cloudy with Fog 50 10 N/A N/A Calm 30.19 1022 0.25 0.402335 0 0
7:35 am 07:35 Cloudy with Fog 50 10 N/A N/A Calm 30.19 1022 N/A 0 0
7:55 am 07:55 Cloudy with Fog 50 10 N/A N/A Calm 30.19 1022 N/A 0 0
8:15 am 08:15 Partly Cloudy with Fog 52 11 N/A N/A Calm 30.2 1023 0.25 0.402335 0 0
8:35 am 08:35 Mostly Cloudy with Fog 50 10 N/A N/A Calm 30.2 1023 0.25 0.402335 0 0
8:55 am 08:55 Cloudy with Mist and Fog 52 11 N/A N/A Calm 30.21 1023 2 3.21868 0 0
9:15 am 09:15 Cloudy with Mist and Fog 54 12 N/A N/A Calm 30.2 1023 2 3.21868 0 0
9:35 am 09:35 Sunny with Mist and Fog 57 14 N/A N/A Calm 30.2 1023 2 3.21868 0 0
9:55 am 09:55 Partly Cloudy with Mist and Fog 59 15 N/A N/A Calm 30.2 1023 2.5 4.02335 0 0
10:15 am 10:15 Hazy 61 16 N/A N/A Calm 30.19 1022 7 11.26538 0 0
10:35 am 10:35 Partly Cloudy 63 17.2 63 17.1 99 99 SW 3 6 30.19 1022 10 16.0934 0 0
10:55 am 10:55 Sunny 64 18 63 17.2 95 95 W 3 6 30.19 1022 10 16.0934 0 0
11:15 am 11:15 Partly Cloudy 65 18.6 63 17.3 92 92 WSW 7 11 30.19 1022 10 16.0934 0 0
11:35 am 11:35 Partly Cloudy 67 19.4 64 17.8 91 91 WSW 5 7 30.18 1022 10 16.0934 0 0
11:55 am 11:55 Partly Cloudy 69 20.4 64 17.8 85 85 SSW 3 6 30.17 1022 10 16.0934 0 0
12:15 pm 12:15 Sunny 73 22.5 64 17.7 74 74 SW 7 11 30.16 1021 10 16.0934 0 0
12:35 pm 12:35 Mostly Cloudy 72 22.4 64 17.6 74 74 WSW 12 19 30.16 1021 10 16.0934 0 0
12:55 pm 12:55 Partly Cloudy 74 23.3 64 18 72 72 WSW 8 13 30.15 1021 10 16.0934 0 0
1:15 pm 13:15 Sunny 76 24.4 65 18.5 70 70 W 13 20 30.13 1020 10 16.0934 0 0
1:35 pm 13:35 Sunny 77 24.8 65 18.4 68 68 WSW 12 19 30.12 1020 10 16.0934 0 0
1:55 pm 13:55 Sunny 78 25.3 65 18.4 66 66 W 10 17 30.1 1019 10 16.0934 0 0
2:15 pm 14:15 Sunny 79 26.2 65 18.5 63 63 WSW 12 19 30.09 1019 10 16.0934 0 0
2:35 pm 14:35 Mostly Cloudy 78 25.6 65 18.1 63 63 WSW 12 19 30.08 1019 10 16.0934 0 0
2:55 pm 14:55 Partly Cloudy 78 25.5 64 18 63 63 WSW 12 19 30.08 1019 10 16.0934 0 0
3:15 pm 15:15 Mostly Cloudy 79 26 64 18 61 61 WSW 8 13 30.07 1018 10 16.0934 0 0
3:35 pm 15:35 Sunny 79 26.3 64 17.9 60 60 WSW 7 11 30.06 1018 10 16.0934 0 0
3:55 pm 15:55 Partly Cloudy 78 25.4 64 17.8 63 63 WSW 7 11 30.06 1018 10 16.0934 0 0
4:15 pm 16:15 Partly Cloudy 78 25.5 63 17.4 61 61 W 8 13 30.06 1018 10 16.0934 0 0
4:35 pm 16:35 Sunny 78 25.4 64 17.6 62 62 WSW 5 7 30.06 1018 10 16.0934 0 0
4:55 pm 16:55 Mostly Cloudy 78 25.8 63 17.2 59 59 WSW 8 13 30.06 1018 10 16.0934 0 0
5:15 pm 17:15 Partly Cloudy 77 25.1 63 17.3 62 62 W 5 7 30.06 1018 10 16.0934 0 0
5:35 pm 17:35 Partly Cloudy 79 26.2 62 16.8 56 56 SW 7 11 30.06 1018 10 16.0934 0 0
5:55 pm 17:55 Sunny 78 25.5 62 16.7 58 58 SW 8 13 30.06 1018 10 16.0934 0 0
6:15 pm 18:15 Sunny 77 25.2 62 16.7 59 59 SW 5 7 30.06 1018 10 16.0934 0 0
6:35 pm 18:35 Sunny 76 24.3 62 16.5 62 62 SW 5 7 30.06 1018 10 16.0934 0 0
6:55 pm 18:55 Clear 72 22.4 62 16.8 71 71 Calm 30.07 1018 10 16.0934 0 0
7:15 pm 19:15 Clear 67 19.6 64 17.8 89 89 Calm 30.08 1018 10 16.0934 0 0
7:35 pm 19:35 Clear 66 18.7 64 17.8 95 95 Calm 30.08 1019 10 16.0934 0 0
7:55 pm 19:55 Clear 64 17.9 63 17.3 96 96 Calm 30.08 1019 10 16.0934 0 0
8:15 pm 20:15 Clear 63 17.3 63 17.1 99 99 Calm 30.09 1019 10 16.0934 0 0
8:35 pm 20:35 Clear 63 17 63 17 100 100 Calm 30.09 1019 7 11.26538 0 0
8:55 pm 20:55 Clear 61 16 61 16 100 100 Calm 30.09 1019 10 16.0934 0 0
9:15 pm 21:15 Clear 61 16 N/A N/A Calm 30.08 1019 10 16.0934 0 0
9:35 pm 21:35 Clear 61 16 N/A N/A Calm 30.08 1019 10 16.0934 0 0
9:55 pm 21:55 Clear 59 15 N/A N/A Calm 30.09 1019 7 11.26538 0 0
10:15 pm 22:15 Hazy 59 15 N/A N/A Calm 30.09 1019 4 6.43736 0 0
10:35 pm 22:35 Clear with Mist and Fog 59 15 N/A N/A Calm 30.08 1019 4 6.43736 0 0
10:55 pm 22:55 Hazy 57 14 N/A N/A Calm 30.08 1019 5 8.0467 0 0
11:15 pm 23:15 Mostly Cloudy with Mist and Fog 57 14 N/A N/A Calm 30.07 1018 1.25 2.011675 0 0
11:35 pm 23:35 Hazy 57 14 N/A N/A Calm 30.07 1018 5 8.0467 0 0
11:55 pm 23:55 Clear with Mist and Fog 57 14 N/A N/A Calm 30.07 1018 2 3.21868 0 0

Powered by AerisWeather